STARLINK-32473, 62049

Orbit data source: Space-Track

STARLINK-32473, 62049 is a payload satellite owned by SpaceX/Seattle (US) in LEO that was launched on Thu, 21 Nov 2024 UTC via an FALCON 9 launch vehicle from the Air Force Eastern Test Range (AFETR). Payloads include a variety of satellites, spacecraft, and rockets equipped with specific instruments for various scientific and technological missions. These include communications satellites like Starlink; space stations such as the ISS; scientific satellites like the Hubble; Earth observation satellites from companies like Planet Labs, Umbra, and HawkEye 360; GPS; miniature CubeSats for education and research; and military/defense satellites.

Loading next visibility...
STARLINK-32473 details
Identifier
62049, 2024-216T
Orbit
LEO
Last TLE update11 hours ago
Origin
Flag of USSpaceX/Seattle (US)
ManufacturerSpaceX/Seattle
MissionOperational spacecraft
Bus & MotorSTARLINK V2M, Unknown motor
Mass730 kg wet, ~700 kg dry
Launch date (UTC)
2024-11-21 (3 weeks ago)
Launch vehicle
FALCON 9
Launch site
Air Force Eastern Test Range (AFETR)
Object type
Payload
Rocket body
Debris
Shape & HBRUnknown
Radar Cross SectionLarge (>1 m²)

Expand to show TLE details & history

TLE from 11 hours ago
0 STARLINK-32473
1 62049U 24216T   24348.50002315 -.00010055  00000-0 -16574-3 0  9992
2 62049  42.9996 307.3436 0001141 278.3442 204.4896 15.50588907  3447
Epoch: 2024-12-13T12:00Z
Definitive object data (Epoch: 2024-12-13T12:00:02Z)
Latitude35.09978°
Longitude176.12499°
Altitude417.174 km
Speed7.666 km/s
True Right ascension05h 15m 11s
True Declination34° 55' 48"
Sunlit
Object was in full shadow at TLE epoch
Visualization TLE readout
Latitude41.75499°
Longitude114.25103°
Altitude418.565 km
Speed7.666 km/s
Apparent Right ascension05h 01m 22s
Apparent Declination4° 59' 37"
Sunlit
Object is in full shadow
Visualization observer readout
Local Sidereal Time21:09:23
Azimuth67.364° ENE
Elevation-17.626°
Doppler factor1
Orbital elements
Apogee altitude417.745 km
Perigee altitude416.195 km
Semi-major axis6,795.107 km
Eccentricity0.0001141
Inclination42.9996°
RAAN307.3436°
Arg. of periapsis278.3442°
True anomaly204.48418°
Mean anomaly204.4896°
Eccentric anomaly204.48689°
Mean motion3.87479 °/min
BSTAR-0.00016574
Orbital period92.91 mins
Loading maneuver chart data...
Loading historical data...
Loading historical data...
Loading historical data...
Loading historical data...
Loading historical data...
Loading historical data...
Loading historical data...

STARLINK-32473 Visibility forecast

Observer location: undefined°, undefined

Span
Click to sort rows by Start time (UTC) header in descending order
Start Az.
Max El. time (UTC)
Max El. Az.
Max El.
End time (UTC)
End Az.
5 mins2024-12-14 01:38:27.855Z239.824° WSW2024-12-14 01:40:27.855Z152.252° SSE43.672°2024-12-14 01:43:27.855Z74.434° E
4 mins2024-12-14 03:16:27.855Z293.75° NW2024-12-14 03:18:27.855Z27.476° NE34.775°2024-12-14 03:20:27.855Z68.356° E
5 mins2024-12-14 04:53:27.855Z293.872° NW2024-12-14 04:55:27.855Z352.734° N42.139°2024-12-14 04:58:27.855Z95.745° ESE
4 mins2024-12-14 06:31:27.855Z255.706° W2024-12-14 06:32:27.855Z227.511° WSW27.11°2024-12-14 06:35:27.855Z148.432° SSE
|